Wetbulb
57.01 56.99 56.90 56.45 56.14 55.63 55.06 54.79 54.79 54.48 54.11 53.80 53.52 52.83 51.96 51.03 50.32 49.66 49.03 48.54 48.58 48.48 48.37 48.42 48.53 48.42 47.93 46.89 47.17 47.17 46.79 46.04 45.65 46.11 46.57 45.87 44.82 44.03 43.40 42.99 42.61 41.99 41.24 40.63 39.68 39.09 38.74 38.37 38.06 37.76 37.41 37.04 36.12 35.25 34.49 33.92 33.38 33.15 33.08 33.11 32.83 32.28 31.82 31.93 31.80 31.58 31.52 31.48 31.54
56.47 56.13 56.18 56.75 56.40 55.27 54.28 54.12 53.98 53.87 53.79 53.64 53.43 52.73 51.81 50.92 50.31 49.66 49.14 48.76 48.93 48.94 48.92 48.69 48.69 48.30 47.68 47.08 47.57 47.59 47.18 46.36 45.64 45.94 46.24 45.54 44.49 43.74 43.24 42.74 41.99 41.58 41.13 40.36 39.50 39.19 38.79 37.80 37.65 37.49 37.18 36.54 35.87 35.11 34.33 33.55 33.20 33.26 33.38 33.14 32.86 32.57 32.34 32.42 32.16 31.93 31.64 31.52 30.93
56.03 55.61 55.28 55.28 54.93 54.42 54.01 53.87 53.52 53.08 52.75 52.70 52.48 52.07 51.48 50.82 50.59 50.16 49.71 49.39 49.17 48.97 48.76 48.57 48.47 48.01 47.44 46.97 47.54 47.70 47.33 46.47 45.71 45.68 45.69 45.24 43.87 43.11 42.74 42.45 41.15 41.03 41.17 40.65 39.81 39.32 38.67 37.34 38.03 38.37 38.20 37.07 35.85 35.32 34.77 33.73 33.88 34.12 34.10 33.58 33.36 33.20 33.35 33.65 32.67 32.03 31.80 31.91 31.00
55.14 54.74 54.42 54.43 54.15 53.98 53.95 54.30 53.54 52.98 52.65 52.65 51.52 51.10 51.04 51.05 50.75 50.25 49.76 49.36 48.79 48.57 48.50 48.53 48.46 48.08 47.62 47.31 47.27 47.29 47.30 46.97 45.80 45.23 44.99 44.62 43.32 42.56 41.98 41.65 40.86 40.45 40.26 39.91 39.23 38.54 37.79 36.86 37.90 38.45 38.09 36.47 35.55 35.42 35.44 34.87 34.76 34.90 34.73 34.06 33.85 33.77 33.72 33.89 32.87 32.60 32.48 32.21 30.98
54.03 54.37 54.67 54.92 54.42 54.40 54.38 54.10 53.44 53.07 52.78 52.63 52.24 51.75 51.39 50.85 50.38 49.77 49.16 49.09 48.98 48.88 48.67 48.41 48.43 48.17 47.75 47.31 46.74 46.53 46.43 46.32 46.55 45.89 44.82 43.99 42.90 42.14 41.69 41.11 40.75 40.34 39.78 39.38 39.07 38.52 37.74 36.83 37.87 37.80 37.14 36.17 36.59 36.25 35.58 34.81 34.62 34.60 34.61 34.44 34.53 34.27 34.01 33.76 33.15 32.84 32.67 32.70 31.31
53.21 53.41 53.81 54.27 54.16 54.20 54.12 53.66 53.22 53.12 53.02 52.78 52.33 51.84 51.32 50.90 50.16 49.55 49.13 49.19 49.00 48.59 48.24 48.29 48.41 48.19 47.65 46.61 46.18 45.96 45.69 45.20 45.93 45.43 44.44 43.53 42.73 41.77 40.89 40.61 40.42 40.11 39.75 39.23 38.76 38.15 37.62 37.51 38.05 37.59 36.92 36.60 36.15 35.74 35.08 34.22 34.27 34.16 34.15 34.29 34.27 34.10 33.83 33.43 33.03 32.78 32.66 32.79 31.51
52.55 53.04 53.61 54.02 54.00 54.00 53.82 52.89 53.05 52.95 52.75 52.41 52.02 51.63 51.28 50.76 49.90 49.33 49.17 49.22 48.79 48.29 48.13 48.75 48.24 47.77 47.09 45.97 45.80 45.62 45.47 45.18 44.98 44.32 43.70 43.61 42.48 41.65 41.20 40.84 40.15 39.79 39.47 39.08 38.60 38.16 37.72 37.40 37.97 38.09 38.16 38.20 36.99 35.53 34.30 33.64 33.85 33.76 33.66 33.70 33.66 33.56 33.26 32.65 32.62 32.62 32.39 31.74 31.13
51.95 52.72 53.60 54.06 53.97 53.70 53.34 52.70 52.76 52.43 52.20 52.23 51.95 51.51 50.91 50.20 49.27 48.79 48.56 48.30 48.11 47.96 48.05 48.43 47.29 46.72 46.43 45.94 45.84 45.71 45.45 44.89 44.56 43.94 43.40 43.07 42.03 41.49 41.13 40.65 40.29 39.77 39.37 39.09 38.82 38.29 37.76 37.48 37.89 37.64 37.33 37.48 36.94 35.62 34.17 33.35 33.46 33.32 33.13 32.85 32.96 32.70 32.34 32.10 31.93 32.10 32.21 31.59 30.99
51.41 52.14 52.81 53.12 53.15 52.98 52.64 52.04 52.00 52.02 51.82 51.55 51.36 50.81 50.13 49.39 48.58 48.27 48.12 47.82 48.03 47.88 47.68 47.68 46.62 46.09 46.03 46.00 45.98 45.84 45.53 45.06 44.38 43.77 43.15 42.61 42.24 41.83 41.43 40.94 40.42 39.86 39.42 38.94 38.66 38.01 37.40 37.31 37.30 36.88 36.60 36.88 36.54 35.49 34.21 33.21 33.25 33.06 32.69 32.37 32.50 32.38 32.06 31.60 31.32 31.39 31.45 31.19 30.92
50.46 50.87 51.26 51.73 51.50 51.45 51.30 50.81 50.87 50.81 50.67 50.31 49.86 49.42 49.35 49.72 48.81 48.40 48.28 48.29 47.74 47.36 47.13 47.08 46.31 45.98 45.89 45.84 45.81 45.66 45.39 45.04 44.52 43.79 43.06 42.89 42.72 42.19 41.71 41.46 40.59 40.03 39.59 38.82 38.58 37.80 37.14 37.18 36.60 36.04 35.69 35.66 35.36 34.64 33.71 32.93 33.08 32.95 32.74 32.96 33.20 32.93 32.36 31.68 31.22 31.09 31.26 31.39 31.07
49.26 49.58 50.06 50.32 49.79 49.76 49.81 49.29 49.57 49.67 49.48 49.21 48.46 48.24 48.47 49.30 48.36 47.91 47.68 47.32 46.86 46.59 46.51 46.59 46.04 45.91 45.83 45.80 45.60 45.42 45.10 44.85 44.60 43.92 43.20 42.67 42.87 42.38 41.77 41.33 40.54 39.99 39.44 38.74 38.32 37.92 37.64 37.44 36.43 35.61 34.95 34.77 34.41 33.88 33.25 32.65 32.88 32.76 32.68 32.84 33.17 33.04 32.70 32.20 31.65 31.31 31.21 31.48 31.01
48.03 48.30 48.65 48.74 48.21 48.24 48.48 48.51 48.62 48.56 48.34 48.03 47.68 47.46 47.41 47.72 46.96 46.77 46.59 45.97 46.14 46.28 46.10 45.49 45.53 45.67 45.78 45.82 45.28 45.17 44.93 44.12 43.84 43.39 42.78 42.14 42.02 41.69 41.22 40.58 39.83 39.36 38.92 38.25 37.99 38.00 37.85 37.06 36.21 35.52 34.90 34.43 33.97 33.54 33.10 32.58 32.67 32.67 32.63 32.46 32.54 32.61 32.65 32.63 32.09 31.71 31.43 31.20 30.91
47.03 47.11 47.24 47.21 46.90 47.07 47.36 47.61 47.43 47.37 47.23 47.14 46.95 46.86 46.81 46.60 46.09 46.06 46.07 45.69 46.14 46.16 45.48 44.25 44.54 45.00 45.30 45.30 44.80 44.56 44.19 43.51 43.06 42.89 42.52 41.57 41.26 40.82 40.23 39.64 38.92 38.44 38.07 37.88 37.62 37.79 37.76 37.00 36.23 35.68 35.12 34.53 34.06 33.67 33.30 32.82 32.83 32.78 32.71 32.45 32.29 32.45 32.65 32.72 32.27 31.93 31.63 31.39 31.17
46.32 46.24 46.15 46.02 46.11 46.37 46.58 46.67 46.45 46.23 46.09 45.96 45.87 45.90 45.89 45.72 45.75 45.96 46.08 45.73 45.72 45.16 44.36 43.47 43.90 44.49 44.80 44.32 44.07 43.59 43.15 42.69 42.25 41.89 41.53 40.97 40.42 39.91 39.32 38.81 38.00 37.55 37.38 37.43 37.11 37.11 37.21 37.23 36.49 36.10 35.72 35.12 34.60 34.07 33.62 33.26 33.31 33.30 33.20 32.92 32.87 33.05 33.20 33.13 32.44 31.99 31.81 31.73 31.85
46.11 45.80 45.54 45.54 45.71 45.93 45.98 45.84 45.63 45.28 44.93 44.80 44.85 45.10 45.51 45.90 45.97 46.11 45.91 44.96 44.49 43.92 43.42 43.09 43.42 43.50 43.34 42.88 42.87 42.50 42.10 41.73 41.30 40.98 40.62 39.95 39.12 38.73 38.41 38.05 37.20 36.82 36.61 36.52 36.44 36.65 36.91 36.87 36.47 36.22 36.01 35.74 35.16 34.59 33.99 33.58 33.49 33.62 33.74 33.69 33.78 33.94 33.89 33.56 32.68 32.16 32.00 32.01 32.03
45.89 45.54 45.37 45.45 45.45 45.45 45.41 45.32 44.97 44.45 44.11 44.33 44.21 44.72 45.33 45.80 45.71 45.53 45.11 44.16 43.51 43.02 42.77 42.60 42.56 42.20 41.96 42.08 41.95 41.70 41.34 40.98 40.58 40.23 39.80 39.13 38.22 37.70 37.41 37.25 36.92 36.42 35.95 35.62 36.01 36.40 36.65 36.78 36.65 36.34 36.08 35.97 35.63 35.12 34.50 33.98 33.65 33.49 33.54 33.74 33.92 34.07 34.16 34.02 33.35 32.77 32.47 32.42 32.48
45.58 45.28 45.11 45.24 45.11 44.97 44.88 44.84 44.45 43.89 43.68 43.90 43.87 44.41 44.94 45.06 44.81 44.84 44.79 44.12 43.58 43.01 42.36 42.08 42.04 41.75 41.51 41.67 41.39 41.22 40.98 40.58 40.03 39.64 39.28 38.61 37.66 37.10 36.85 36.73 36.80 36.41 35.86 35.56 36.01 36.36 36.50 36.52 36.55 36.24 35.92 35.82 35.82 35.49 34.95 34.37 34.13 33.94 33.83 33.68 33.75 33.83 34.14 34.86 34.45 33.79 33.18 32.82 33.16
45.10 44.84 44.71 44.93 44.76 44.54 44.40 44.27 43.87 43.62 43.38 43.52 43.36 43.74 43.99 43.90 43.77 43.90 43.98 43.84 43.45 42.88 42.36 41.75 41.51 41.35 41.23 40.90 40.70 40.78 40.82 40.15 39.32 38.72 38.24 37.60 36.96 36.57 36.37 36.20 36.42 36.23 35.98 35.96 36.34 36.65 36.79 36.66 36.32 36.15 35.95 35.71 35.66 35.49 35.30 34.94 34.82 34.52 34.10 33.67 33.63 33.50 33.65 34.26 34.31 34.27 34.07 33.51 34.06
44.48 44.35 44.31 44.44 44.40 44.32 44.27 44.31 43.92 43.63 43.21 42.80 42.51 42.52 42.61 42.40 42.70 42.82 42.90 42.94 43.21 43.08 42.59 41.99 41.31 41.02 40.86 40.54 40.02 40.30 40.30 39.11 38.10 37.37 36.76 36.27 35.96 35.93 35.86 35.73 35.87 35.85 35.89 36.36 36.79 37.05 37.08 36.89 36.53 36.26 36.06 35.91 35.53 35.35 35.21 35.11 35.00 34.72 34.25 33.86 33.75 33.69 33.69 33.75 33.86 34.07 34.20 34.05 34.52
43.94 43.82 43.91 44.18 44.14 44.10 44.14 44.27 43.93 43.37 42.74 41.98 41.52 41.33 41.30 41.31 42.03 42.45 42.57 42.49 42.89 42.84 42.47 42.03 41.31 40.57 39.92 39.43 39.11 38.97 38.72 37.93 36.93 36.28 35.80 35.35 35.37 35.38 35.39 35.35 35.57 35.61 35.86 36.60 37.26 37.34 37.26 37.00 36.62 36.35 36.18 36.00 35.72 35.50 35.38 35.09 34.92 34.61 34.34 34.46 34.34 34.29 34.12 34.08 33.90 33.81 33.82 33.99 34.07
43.09 43.09 43.32 43.69 43.87 43.87 43.92 44.05 43.49 42.81 42.01 41.29 40.85 40.70 40.76 40.98 41.66 42.00 42.12 42.12 42.16 42.00 41.67 41.22 40.57 39.70 38.90 38.24 37.91 37.56 37.18 37.04 36.06 35.55 35.44 35.19 35.30 35.18 35.14 35.31 35.51 35.64 35.89 36.72 37.16 37.39 37.41 37.32 36.81 36.32 35.86 35.57 35.59 35.53 35.39 35.18 34.87 34.41 34.23 34.67 34.88 34.58 34.22 34.05 33.78 33.69 33.74 33.96 33.75
42.01 42.06 42.42 43.10 43.43 43.74 43.75 43.71 42.89 42.13 41.33 40.75 40.56 40.50 40.51 40.69 40.86 40.90 40.86 40.87 41.00 40.88 40.55 39.92 39.24 38.57 37.99 37.36 37.03 36.60 36.30 36.36 35.42 35.13 35.31 35.40 35.44 35.41 35.39 35.49 35.80 35.80 36.01 36.67 36.78 37.08 37.28 37.14 36.66 35.78 34.98 34.76 34.85 34.93 35.14 35.00 34.64 34.23 33.99 33.86 33.89 33.75 33.44 33.08 33.33 33.55 33.65 33.74 33.37
40.63 41.00 41.86 42.71 43.17 43.84 44.06 43.28 42.13 41.41 40.84 40.33 40.10 40.03 40.01 40.05 39.92 39.75 39.71 39.94 40.24 39.95 39.36 38.71 38.06 37.42 36.92 36.60 36.41 36.17 35.93 35.81 35.13 34.97 34.98 35.04 35.21 35.24 35.36 35.71 36.18 36.27 36.42 37.09 36.50 36.08 35.90 36.06 35.33 34.52 34.05 34.13 34.16 34.43 34.55 34.19 34.24 34.01 33.60 33.02 32.92 32.60 32.40 32.25 32.18 32.34 32.55 32.54 32.30
39.34 40.15 41.17 42.02 42.51 42.87 42.75 42.07 41.27 40.74 40.24 39.82 39.58 39.43 39.36 39.31 39.18 39.01 38.81 38.78 38.74 38.44 38.06 37.71 37.17 36.60 36.14 35.88 35.82 35.86 35.86 35.74 35.29 34.84 34.52 34.19 34.31 34.62 35.16 35.99 36.34 36.78 37.20 37.66 37.72 37.33 36.69 36.32 34.70 33.96 33.79 33.75 34.28 34.27 34.01 33.48 33.52 33.29 32.99 32.57 32.46 32.35 32.20 32.09 31.34 31.17 31.10 30.90 31.39
38.65 39.73 40.58 40.94 41.20 41.33 41.17 40.76 40.27 39.77 39.22 38.97 38.80 38.73 38.69 38.55 38.33 38.13 37.93 37.68 37.46 37.24 36.94 36.77 36.24 35.76 35.39 35.37 35.09 35.03 35.14 35.18 34.97 34.58 34.21 33.83 33.79 34.21 34.97 35.84 36.81 37.46 38.15 38.97 41.55 42.85 42.89 41.82 39.03 36.50 34.65 34.01 34.64 34.80 34.33 33.53 33.23 33.08 33.09 33.23 33.08 33.01 32.80 32.37 31.54 30.93 30.54 30.29 30.76
38.26 38.99 39.35 39.43 39.74 39.92 39.84 39.41 38.83 38.46 38.13 38.08 38.08 38.01 38.01 37.78 37.66 37.47 37.27 36.98 36.70 36.38 36.20 36.03 35.94 36.15 36.09 34.97 34.59 34.34 34.18 34.09 34.01 33.99 34.02 33.96 34.02 34.34 34.98 35.98 37.62 37.53 37.63 39.99 43.28 44.98 45.73 45.90 45.04 42.22 38.28 34.52 35.13 35.38 35.21 34.80 34.17 33.77 33.53 33.39 33.45 33.22 32.88 32.52 31.93 31.36 31.03 31.14 30.83
37.69 37.74 37.55 37.77 38.23 38.23 37.96 37.46 37.35 37.32 37.37 37.33 37.31 37.22 37.10 36.97 36.96 36.77 36.61 36.26 35.85 35.60 35.44 35.36 35.85 37.16 37.35 34.57 34.40 34.07 33.81 33.43 33.27 33.37 33.58 33.87 34.20 34.62 35.23 36.27 37.53 36.98 37.02 40.26 43.61 45.34 46.16 46.65 46.94 45.95 43.26 38.05 36.50 35.95 36.03 35.98 34.89 34.07 33.45 33.13 32.87 32.49 32.17 31.87 31.65 31.63 31.67 31.73 30.99
36.38 36.14 36.06 36.67 36.77 36.44 36.17 36.30 36.67 36.74 36.69 36.49 36.50 36.46 36.42 36.29 36.19 36.04 35.75 35.35 35.06 34.81 34.67 34.54 35.40 35.83 35.49 34.11 33.99 33.81 33.53 33.41 33.37 33.31 33.35 33.52 34.24 34.81 35.53 36.62 36.97 37.77 39.51 42.76 44.49 45.52 46.12 46.56 46.75 46.76 45.94 43.39 39.44 37.25 36.37 35.89 35.40 34.83 34.08 33.25 32.61 31.78 31.25 31.22 31.57 31.62 31.62 31.52 31.15
35.15 35.16 35.31 35.79 35.65 35.56 35.72 36.06 36.18 36.08 35.93 35.78 35.84 35.86 35.86 35.77 35.55 35.27 35.05 34.78 34.63 34.31 33.90 33.59 34.89 34.55 33.80 33.85 33.38 33.11 33.00 33.09 33.12 33.30 33.53 33.73 34.43 35.05 35.72 36.49 36.51 37.97 40.67 44.24 45.02 45.63 46.03 46.36 46.47 46.51 46.43 45.91 42.82 40.16 38.23 37.25 36.65 35.89 35.13 34.34 33.50 32.65 32.00 31.79 32.07 32.15 32.06 31.74 31.61
34.66 34.82 35.06 35.26 35.36 35.42 35.50 35.50 35.50 35.36 35.34 35.25 35.26 35.22 35.17 35.05 34.83 34.52 34.26 34.12 33.76 33.75 33.63 33.00 33.50 33.56 33.34 32.96 32.63 32.69 32.85 32.80 32.78 33.25 33.76 34.33 35.03 35.64 36.43 37.70 37.29 38.02 40.32 44.12 45.02 45.58 45.90 46.10 46.22 46.34 46.34 46.23 44.60 42.32 40.10 38.42 37.21 36.35 35.76 35.46 34.15 32.92 32.12 32.23 31.77 31.66 31.89 32.33 32.10
34.36 34.52 34.85 35.14 35.19 35.08 35.04 34.98 35.07 35.02 34.88 34.73 34.66 34.55 34.48 34.26 33.84 33.45 33.03 32.68 33.31 34.34 34.73 33.03 32.92 32.85 32.45 31.70 31.85 32.29 32.73 32.74 32.88 33.29 33.82 34.30 36.41 37.26 37.37 37.43 37.20 37.91 40.00 43.74 44.61 45.21 45.52 45.76 45.88 45.92 45.96 46.05 44.95 43.03 40.90 38.94 37.96 37.21 36.59 36.07 34.55 33.37 32.69 32.25 31.71 31.50 31.42 31.34 31.61
34.04 34.25 34.59 35.04 34.87 34.57 34.53 34.55 34.67 34.63 34.52 34.34 34.14 33.94 33.74 33.24 32.54 32.03 31.89 32.48 33.42 33.77 33.65 32.85 32.86 32.78 32.31 31.71 31.84 32.12 32.49 32.81 33.19 33.57 34.15 34.76 35.62 36.17 36.61 37.32 37.03 37.75 39.72 43.36 44.15 44.72 45.12 45.36 45.52 45.60 45.68 45.72 44.74 42.66 40.43 39.21 38.16 37.32 36.33 34.96 34.00 33.00 32.57 33.33 33.19 32.28 31.48 31.29 31.48
33.71 33.82 34.03 34.31 34.22 34.10 34.02 34.01 34.16 34.14 34.05 33.90 33.65 33.44 33.11 32.49 31.86 31.65 31.98 33.07 33.27 32.85 32.40 32.66 32.88 32.76 32.61 32.44 32.44 32.60 32.84 33.21 33.90 35.12 36.25 36.77 36.24 36.02 36.25 37.32 37.36 38.78 41.04 43.40 44.09 44.53 44.86 45.06 45.23 45.31 45.44 45.52 44.21 42.00 39.77 38.50 38.18 37.43 36.52 35.31 34.08 32.87 32.00 31.43 32.27 32.44 32.24 32.10 32.26
33.56 33.54 33.55 33.64 33.67 33.52 33.37 33.45 33.52 33.63 33.74 33.52 33.20 32.83 32.52 32.20 32.26 32.45 33.01 34.10 33.15 32.13 31.44 31.72 31.98 32.08 32.16 32.16 32.56 32.98 33.80 35.35 35.11 34.88 34.90 35.23 35.06 35.16 35.53 36.46 37.35 39.54 42.03 43.41 43.98 44.34 44.58 44.67 44.83 44.92 45.01 44.97 43.30 41.01 38.68 37.01 36.98 36.54 35.93 35.07 34.07 33.25 32.56 32.07 31.71 31.75 32.01 32.18 32.79
33.55 33.49 33.38 33.11 32.92 32.74 32.74 32.78 33.01 33.24 33.41 33.32 33.00 32.69 32.27 31.96 32.14 32.45 33.27 34.86 33.65 31.98 30.72 30.60 30.65 30.94 31.23 31.44 31.86 32.75 33.86 35.14 34.67 34.22 33.92 33.54 33.34 33.65 34.21 34.74 35.59 38.41 41.39 42.77 43.33 43.69 44.01 44.12 44.15 44.19 44.08 43.69 41.75 39.51 37.40 35.66 35.58 35.14 34.60 34.03 33.56 33.13 32.72 32.55 32.17 31.88 31.57 31.52 31.91
33.55 33.50 33.36 33.03 32.63 32.50 32.56 32.65 32.94 33.12 33.23 33.15 33.07 32.88 32.51 32.04 31.66 31.70 32.71 35.05 33.63 32.05 30.95 30.61 30.48 30.72 31.08 31.24 31.21 32.72 34.04 33.68 33.72 33.56 33.53 33.56 33.32 33.31 33.33 33.67 33.89 36.60 39.80 41.75 42.40 42.83 43.11 43.30 43.45 43.49 43.22 42.07 39.90 38.13 36.72 35.87 35.54 34.52 33.36 32.94 32.84 32.50 32.19 32.55 32.38 31.70 31.09 30.99 30.96
33.52 33.59 33.48 33.22 32.86 32.73 32.75 32.99 33.25 33.32 33.26 33.01 32.76 32.48 32.25 31.96 31.61 31.45 32.13 34.08 32.41 31.63 31.23 30.64 30.79 31.10 31.44 31.59 31.65 32.45 33.18 33.15 33.24 33.35 33.84 34.77 34.50 33.94 33.43 33.28 32.65 34.36 37.35 40.33 41.43 42.11 42.51 42.83 43.07 43.07 42.39 40.50 38.39 36.95 36.02 35.47 35.12 34.11 32.95 32.36 32.07 31.57 31.32 32.19 31.86 31.12 30.30 29.66 30.34
33.70 33.79 33.79 33.50 33.17 33.05 33.07 33.19 33.30 33.15 32.93 32.49 31.95 31.47 31.24 31.20 31.24 31.41 32.24 34.23 32.23 31.55 31.30 30.63 30.89 31.18 31.57 31.85 32.23 32.59 32.79 32.75 33.55 33.94 34.03 34.27 33.85 33.20 32.50 31.80 31.21 32.46 35.15 38.97 40.65 41.63 42.16 42.56 42.84 42.75 41.91 39.73 37.61 36.48 35.89 35.39 34.30 33.57 33.37 33.27 32.59 31.60 30.98 31.68 31.56 31.06 30.25 29.31 33.12
33.72 33.90 33.89 33.57 33.26 33.04 32.83 32.81 32.64 32.39 32.12 31.82 31.48 31.16 31.01 30.91 31.09 31.77 32.69 33.57 31.52 31.11 31.33 31.09 31.20 31.44 32.05 33.02 33.07 32.99 32.84 32.54 32.93 33.22 33.14 32.25 32.07 32.92 33.30 31.93 31.23 32.20 34.64 38.54 40.40 41.31 41.75 42.11 42.39 42.43 41.91 40.26 37.92 36.65 35.85 35.05 33.59 33.00 33.09 33.36 33.28 32.26 31.23 31.11 30.92 30.75 30.37 29.60 35.35
33.29 33.25 33.10 32.84 32.58 32.41 32.28 32.25 32.00 31.78 31.62 31.63 31.63 31.40 31.36 31.84 32.21 32.84 32.92 31.73 30.58 30.74 31.35 31.78 31.95 32.21 32.92 34.50 33.63 32.69 31.96 31.51 30.65 30.51 30.72 30.92 31.52 33.99 35.51 33.49 31.85 32.03 33.90 37.58 39.54 40.61 41.06 41.47 41.79 42.03 41.42 39.71 37.54 36.27 35.42 34.46 33.50 32.97 32.90 33.07 33.24 32.92 32.33 31.63 31.10 30.51 29.86 28.77 33.13
32.95 32.77 32.49 32.14 31.89 31.87 31.85 31.92 31.80 31.54 31.28 31.21 31.30 31.59 32.11 32.94 32.17 31.61 31.07 30.20 30.43 30.80 31.21 31.74 31.82 31.81 32.18 33.44 32.32 31.14 30.18 29.82 29.41 29.03 29.34 30.64 31.17 33.20 34.44 32.42 30.86 30.38 31.35 34.27 37.59 39.44 40.38 40.95 41.26 41.54 41.18 39.52 37.43 36.01 34.97 33.79 33.27 32.70 32.42 32.64 32.86 33.04 32.92 32.22 31.56 30.62 29.58 28.14 29.03
MSLP
1016.89 1017.01 1017.13 1017.29 1017.45 1017.61 1017.73 1017.81 1017.93 1018.09 1018.21 1018.37 1018.53 1018.69 1018.89 1019.09 1019.21 1019.37 1019.53 1019.65 1019.73 1019.81 1019.93 1019.97 1020.01 1020.09 1020.21 1020.37 1020.45 1020.57 1020.69 1020.77 1020.93 1021.01 1021.09 1021.21 1021.33 1021.45 1021.57 1021.73 1021.81 1021.97 1022.09 1022.21 1022.33 1022.41 1022.49 1022.57 1022.65 1022.81 1022.93 1023.05 1023.21 1023.33 1023.41 1023.49 1023.57 1023.69 1023.81 1023.89 1023.97 1024.09 1024.17 1024.21 1024.29 1024.37 1024.37 1024.41 1024.37
1016.77 1016.93 1017.05 1017.17 1017.33 1017.49 1017.65 1017.81 1017.93 1018.05 1018.17 1018.21 1018.37 1018.49 1018.69 1018.89 1019.05 1019.21 1019.37 1019.49 1019.53 1019.65 1019.73 1019.81 1019.89 1020.01 1020.17 1020.29 1020.37 1020.49 1020.61 1020.73 1020.85 1020.93 1021.01 1021.09 1021.21 1021.29 1021.41 1021.57 1021.69 1021.81 1021.97 1022.09 1022.21 1022.37 1022.45 1022.53 1022.65 1022.77 1022.93 1023.05 1023.17 1023.29 1023.37 1023.41 1023.49 1023.57 1023.69 1023.81 1023.81 1023.89 1023.97 1024.09 1024.09 1024.09 1024.13 1024.21 1024.25
1016.73 1016.85 1016.97 1017.13 1017.29 1017.49 1017.65 1017.81 1017.89 1018.01 1018.09 1018.21 1018.29 1018.45 1018.61 1018.73 1018.89 1019.05 1019.21 1019.29 1019.37 1019.49 1019.61 1019.73 1019.85 1019.93 1020.09 1020.21 1020.29 1020.37 1020.49 1020.61 1020.73 1020.81 1020.93 1021.01 1021.09 1021.21 1021.33 1021.45 1021.61 1021.73 1021.85 1021.97 1022.13 1022.25 1022.37 1022.49 1022.53 1022.65 1022.81 1022.93 1023.09 1023.21 1023.33 1023.37 1023.41 1023.49 1023.57 1023.65 1023.69 1023.77 1023.85 1023.89 1023.93 1023.93 1023.97 1024.05 1024.13
1016.65 1016.81 1016.93 1017.09 1017.21 1017.37 1017.49 1017.57 1017.73 1017.89 1018.01 1018.13 1018.25 1018.41 1018.53 1018.65 1018.77 1018.89 1019.05 1019.17 1019.33 1019.45 1019.53 1019.57 1019.73 1019.85 1019.97 1020.09 1020.21 1020.33 1020.37 1020.45 1020.61 1020.73 1020.81 1020.93 1021.05 1021.13 1021.25 1021.37 1021.49 1021.65 1021.81 1021.93 1022.05 1022.17 1022.29 1022.45 1022.49 1022.61 1022.69 1022.85 1023.01 1023.09 1023.17 1023.25 1023.33 1023.37 1023.45 1023.49 1023.53 1023.65 1023.73 1023.73 1023.77 1023.81 1023.85 1023.93 1023.97
1016.61 1016.69 1016.77 1016.93 1017.05 1017.13 1017.25 1017.41 1017.57 1017.77 1017.89 1018.05 1018.21 1018.37 1018.49 1018.61 1018.69 1018.81 1018.93 1019.09 1019.21 1019.29 1019.37 1019.41 1019.53 1019.65 1019.81 1019.93 1020.09 1020.21 1020.29 1020.37 1020.49 1020.61 1020.73 1020.89 1020.97 1021.09 1021.21 1021.33 1021.45 1021.61 1021.73 1021.89 1022.01 1022.17 1022.29 1022.45 1022.49 1022.61 1022.69 1022.77 1022.93 1022.97 1023.05 1023.13 1023.25 1023.33 1023.37 1023.37 1023.41 1023.49 1023.53 1023.61 1023.65 1023.69 1023.73 1023.81 1023.85
1016.57 1016.65 1016.69 1016.77 1016.89 1017.01 1017.13 1017.29 1017.45 1017.61 1017.77 1017.93 1018.09 1018.25 1018.37 1018.49 1018.65 1018.73 1018.85 1018.93 1019.01 1019.09 1019.17 1019.29 1019.37 1019.53 1019.69 1019.89 1020.01 1020.13 1020.25 1020.37 1020.45 1020.57 1020.69 1020.85 1020.97 1021.09 1021.21 1021.33 1021.37 1021.49 1021.69 1021.85 1021.97 1022.13 1022.25 1022.41 1022.53 1022.65 1022.73 1022.77 1022.85 1022.93 1023.01 1023.09 1023.21 1023.33 1023.37 1023.37 1023.37 1023.37 1023.41 1023.49 1023.53 1023.57 1023.61 1023.69 1023.73
1016.49 1016.57 1016.65 1016.73 1016.81 1016.93 1017.09 1017.21 1017.33 1017.49 1017.65 1017.81 1017.93 1018.05 1018.17 1018.25 1018.45 1018.57 1018.65 1018.73 1018.81 1018.97 1019.09 1019.17 1019.25 1019.37 1019.53 1019.77 1019.93 1020.05 1020.17 1020.29 1020.37 1020.49 1020.65 1020.77 1020.93 1021.09 1021.21 1021.25 1021.37 1021.49 1021.65 1021.81 1021.97 1022.13 1022.25 1022.37 1022.49 1022.61 1022.73 1022.77 1022.89 1022.93 1023.05 1023.13 1023.21 1023.29 1023.37 1023.37 1023.37 1023.33 1023.37 1023.41 1023.41 1023.41 1023.49 1023.61 1023.65
1016.41 1016.49 1016.53 1016.65 1016.73 1016.85 1017.01 1017.13 1017.29 1017.45 1017.61 1017.69 1017.81 1017.85 1017.93 1018.09 1018.25 1018.37 1018.49 1018.61 1018.73 1018.85 1018.93 1019.01 1019.13 1019.25 1019.37 1019.53 1019.69 1019.85 1020.01 1020.13 1020.29 1020.41 1020.53 1020.69 1020.89 1021.01 1021.13 1021.25 1021.37 1021.49 1021.61 1021.77 1021.93 1022.09 1022.21 1022.37 1022.45 1022.57 1022.73 1022.77 1022.89 1022.93 1023.05 1023.13 1023.17 1023.25 1023.33 1023.33 1023.25 1023.25 1023.29 1023.29 1023.29 1023.33 1023.37 1023.45 1023.49
1016.41 1016.45 1016.49 1016.57 1016.65 1016.77 1016.93 1017.01 1017.17 1017.33 1017.45 1017.53 1017.61 1017.69 1017.81 1017.93 1018.09 1018.21 1018.37 1018.49 1018.53 1018.65 1018.77 1018.85 1018.97 1019.09 1019.21 1019.33 1019.49 1019.65 1019.81 1019.97 1020.13 1020.33 1020.49 1020.61 1020.77 1020.93 1021.09 1021.21 1021.33 1021.45 1021.57 1021.73 1021.89 1022.05 1022.21 1022.37 1022.49 1022.57 1022.65 1022.77 1022.85 1022.93 1022.97 1023.09 1023.17 1023.21 1023.21 1023.21 1023.21 1023.21 1023.21 1023.21 1023.21 1023.25 1023.29 1023.33 1023.41
1016.45 1016.49 1016.53 1016.61 1016.65 1016.77 1016.85 1016.97 1017.09 1017.21 1017.37 1017.45 1017.53 1017.65 1017.77 1017.85 1017.97 1018.09 1018.21 1018.29 1018.41 1018.57 1018.65 1018.73 1018.85 1019.01 1019.17 1019.29 1019.37 1019.53 1019.69 1019.81 1020.01 1020.21 1020.37 1020.49 1020.65 1020.77 1020.97 1021.09 1021.25 1021.37 1021.53 1021.65 1021.85 1022.05 1022.21 1022.33 1022.49 1022.53 1022.65 1022.73 1022.77 1022.85 1022.93 1023.01 1023.09 1023.09 1023.13 1023.09 1023.09 1023.13 1023.17 1023.13 1023.17 1023.21 1023.21 1023.21 1023.29
1016.45 1016.49 1016.53 1016.61 1016.69 1016.77 1016.89 1017.01 1017.09 1017.21 1017.33 1017.45 1017.57 1017.65 1017.77 1017.85 1017.93 1018.01 1018.09 1018.21 1018.41 1018.53 1018.57 1018.61 1018.77 1018.93 1019.09 1019.21 1019.37 1019.49 1019.61 1019.73 1019.89 1020.09 1020.25 1020.41 1020.53 1020.65 1020.81 1020.97 1021.09 1021.25 1021.45 1021.61 1021.81 1021.93 1022.13 1022.25 1022.41 1022.53 1022.65 1022.69 1022.77 1022.81 1022.89 1022.93 1022.97 1023.01 1023.05 1023.01 1023.05 1023.09 1023.09 1023.09 1023.09 1023.09 1023.13 1023.13 1023.17
1016.49 1016.49 1016.57 1016.61 1016.69 1016.81 1016.93 1017.09 1017.21 1017.29 1017.37 1017.49 1017.61 1017.69 1017.81 1017.81 1017.93 1018.01 1018.09 1018.25 1018.41 1018.49 1018.49 1018.57 1018.73 1018.93 1019.05 1019.17 1019.29 1019.41 1019.53 1019.73 1019.85 1020.01 1020.17 1020.33 1020.45 1020.57 1020.73 1020.85 1021.05 1021.21 1021.37 1021.53 1021.69 1021.89 1022.05 1022.21 1022.37 1022.49 1022.57 1022.65 1022.69 1022.77 1022.81 1022.89 1022.93 1022.93 1022.93 1022.97 1023.01 1023.05 1023.01 1022.97 1022.97 1022.97 1022.97 1022.97 1023.01
1016.49 1016.57 1016.65 1016.73 1016.77 1016.89 1017.01 1017.13 1017.21 1017.37 1017.45 1017.53 1017.65 1017.69 1017.77 1017.81 1017.93 1018.01 1018.13 1018.25 1018.37 1018.41 1018.53 1018.65 1018.77 1018.89 1019.01 1019.09 1019.25 1019.41 1019.53 1019.65 1019.81 1019.93 1020.09 1020.25 1020.41 1020.57 1020.69 1020.85 1021.01 1021.13 1021.29 1021.49 1021.65 1021.77 1021.93 1022.09 1022.25 1022.37 1022.49 1022.57 1022.65 1022.65 1022.73 1022.77 1022.81 1022.85 1022.89 1022.93 1022.93 1022.93 1022.93 1022.81 1022.77 1022.81 1022.85 1022.89 1022.89
1016.57 1016.65 1016.73 1016.81 1016.93 1017.01 1017.09 1017.21 1017.37 1017.45 1017.53 1017.65 1017.65 1017.69 1017.81 1017.89 1017.93 1018.05 1018.13 1018.21 1018.33 1018.45 1018.61 1018.77 1018.81 1018.89 1018.97 1019.09 1019.21 1019.37 1019.49 1019.61 1019.77 1019.93 1020.05 1020.21 1020.37 1020.53 1020.69 1020.85 1020.97 1021.09 1021.25 1021.41 1021.57 1021.69 1021.81 1021.97 1022.09 1022.21 1022.37 1022.49 1022.53 1022.57 1022.61 1022.65 1022.69 1022.69 1022.73 1022.77 1022.77 1022.77 1022.73 1022.65 1022.65 1022.65 1022.73 1022.77 1022.77
1016.65 1016.73 1016.81 1016.93 1017.01 1017.13 1017.21 1017.33 1017.45 1017.49 1017.57 1017.65 1017.73 1017.77 1017.81 1017.89 1017.93 1018.05 1018.13 1018.25 1018.41 1018.49 1018.65 1018.77 1018.93 1018.93 1019.01 1019.09 1019.21 1019.33 1019.45 1019.61 1019.77 1019.93 1020.09 1020.21 1020.37 1020.49 1020.65 1020.77 1020.93 1021.09 1021.21 1021.37 1021.49 1021.61 1021.73 1021.85 1021.97 1022.09 1022.21 1022.33 1022.37 1022.41 1022.45 1022.49 1022.53 1022.53 1022.53 1022.57 1022.53 1022.49 1022.49 1022.45 1022.49 1022.49 1022.57 1022.57 1022.57
1016.73 1016.81 1016.93 1017.01 1017.09 1017.21 1017.33 1017.41 1017.49 1017.61 1017.65 1017.69 1017.77 1017.81 1017.81 1017.93 1017.97 1018.09 1018.21 1018.37 1018.49 1018.61 1018.69 1018.81 1018.93 1019.01 1019.09 1019.17 1019.21 1019.37 1019.49 1019.65 1019.77 1019.93 1020.05 1020.21 1020.37 1020.49 1020.65 1020.73 1020.89 1021.01 1021.13 1021.29 1021.45 1021.53 1021.65 1021.73 1021.81 1021.93 1022.09 1022.17 1022.21 1022.21 1022.25 1022.37 1022.41 1022.37 1022.37 1022.33 1022.29 1022.25 1022.25 1022.25 1022.29 1022.33 1022.37 1022.37 1022.37
1016.81 1016.93 1017.01 1017.09 1017.17 1017.29 1017.37 1017.49 1017.57 1017.65 1017.73 1017.73 1017.81 1017.81 1017.89 1017.93 1018.05 1018.13 1018.25 1018.37 1018.49 1018.65 1018.77 1018.81 1018.93 1019.01 1019.13 1019.21 1019.29 1019.41 1019.53 1019.65 1019.81 1019.93 1020.05 1020.17 1020.33 1020.49 1020.61 1020.69 1020.77 1020.93 1021.09 1021.21 1021.37 1021.49 1021.57 1021.65 1021.69 1021.81 1021.93 1021.97 1022.05 1022.09 1022.09 1022.13 1022.21 1022.21 1022.13 1022.13 1022.13 1022.09 1022.09 1022.05 1022.05 1022.09 1022.09 1022.17 1022.13
1016.93 1017.01 1017.09 1017.13 1017.25 1017.37 1017.45 1017.53 1017.65 1017.69 1017.77 1017.77 1017.81 1017.85 1017.93 1017.97 1018.09 1018.21 1018.25 1018.33 1018.45 1018.61 1018.77 1018.85 1018.93 1019.01 1019.13 1019.25 1019.37 1019.45 1019.53 1019.65 1019.81 1019.93 1020.05 1020.17 1020.25 1020.37 1020.49 1020.65 1020.73 1020.85 1020.97 1021.13 1021.25 1021.37 1021.45 1021.53 1021.61 1021.69 1021.81 1021.81 1021.85 1021.89 1021.93 1021.93 1021.97 1021.97 1021.93 1021.93 1021.93 1021.93 1021.89 1021.85 1021.85 1021.85 1021.89 1021.93 1021.85
1017.09 1017.13 1017.21 1017.25 1017.37 1017.41 1017.49 1017.57 1017.65 1017.69 1017.77 1017.81 1017.85 1017.89 1017.93 1018.01 1018.09 1018.21 1018.29 1018.33 1018.41 1018.49 1018.65 1018.81 1018.93 1019.05 1019.13 1019.21 1019.37 1019.45 1019.53 1019.65 1019.81 1019.93 1020.09 1020.17 1020.25 1020.37 1020.49 1020.57 1020.69 1020.81 1020.93 1021.09 1021.13 1021.21 1021.29 1021.37 1021.49 1021.53 1021.65 1021.65 1021.69 1021.73 1021.73 1021.77 1021.77 1021.77 1021.77 1021.77 1021.77 1021.73 1021.69 1021.65 1021.65 1021.65 1021.65 1021.65 1021.65
1017.17 1017.21 1017.29 1017.33 1017.37 1017.45 1017.49 1017.61 1017.65 1017.69 1017.73 1017.81 1017.89 1017.93 1018.01 1018.05 1018.09 1018.13 1018.25 1018.33 1018.37 1018.45 1018.57 1018.77 1018.93 1019.05 1019.17 1019.25 1019.37 1019.49 1019.61 1019.69 1019.85 1019.97 1020.09 1020.17 1020.29 1020.37 1020.49 1020.57 1020.65 1020.77 1020.89 1021.01 1021.05 1021.09 1021.17 1021.21 1021.33 1021.37 1021.45 1021.49 1021.53 1021.57 1021.57 1021.61 1021.61 1021.61 1021.61 1021.57 1021.57 1021.49 1021.49 1021.41 1021.41 1021.41 1021.41 1021.45 1021.45
1017.21 1017.25 1017.29 1017.33 1017.37 1017.45 1017.49 1017.57 1017.65 1017.69 1017.77 1017.81 1017.93 1017.97 1018.01 1018.05 1018.09 1018.13 1018.21 1018.29 1018.37 1018.49 1018.65 1018.77 1018.93 1019.09 1019.21 1019.37 1019.49 1019.61 1019.69 1019.81 1019.93 1020.01 1020.09 1020.21 1020.29 1020.37 1020.41 1020.49 1020.61 1020.73 1020.81 1020.93 1020.93 1021.01 1021.05 1021.09 1021.17 1021.21 1021.29 1021.37 1021.37 1021.37 1021.41 1021.45 1021.49 1021.49 1021.45 1021.41 1021.37 1021.29 1021.25 1021.21 1021.21 1021.21 1021.25 1021.29 1021.29
1017.25 1017.29 1017.33 1017.37 1017.37 1017.41 1017.49 1017.53 1017.65 1017.73 1017.81 1017.85 1017.93 1017.97 1018.05 1018.13 1018.17 1018.21 1018.29 1018.37 1018.49 1018.61 1018.77 1018.89 1019.05 1019.17 1019.29 1019.41 1019.53 1019.65 1019.77 1019.85 1019.97 1020.09 1020.13 1020.21 1020.25 1020.33 1020.37 1020.49 1020.53 1020.65 1020.73 1020.81 1020.85 1020.89 1020.93 1020.97 1021.01 1021.05 1021.09 1021.17 1021.21 1021.21 1021.21 1021.29 1021.29 1021.29 1021.25 1021.21 1021.21 1021.13 1021.09 1021.09 1021.09 1021.09 1021.09 1021.09 1021.13
1017.29 1017.29 1017.29 1017.33 1017.37 1017.41 1017.49 1017.61 1017.69 1017.81 1017.89 1017.93 1018.01 1018.09 1018.13 1018.21 1018.29 1018.37 1018.41 1018.49 1018.61 1018.73 1018.89 1019.05 1019.13 1019.25 1019.37 1019.41 1019.53 1019.65 1019.81 1019.93 1020.05 1020.09 1020.17 1020.21 1020.29 1020.37 1020.41 1020.49 1020.53 1020.61 1020.65 1020.69 1020.73 1020.77 1020.85 1020.89 1020.89 1020.93 1020.97 1021.05 1021.09 1021.09 1021.09 1021.09 1021.13 1021.13 1021.09 1021.09 1021.05 1021.05 1021.01 1020.97 1020.97 1021.01 1020.97 1020.97 1021.01
1017.33 1017.29 1017.29 1017.33 1017.41 1017.49 1017.61 1017.69 1017.81 1017.89 1017.97 1018.09 1018.13 1018.17 1018.25 1018.33 1018.37 1018.49 1018.57 1018.65 1018.77 1018.89 1019.01 1019.17 1019.29 1019.37 1019.49 1019.57 1019.65 1019.73 1019.85 1020.01 1020.09 1020.21 1020.21 1020.25 1020.29 1020.37 1020.41 1020.45 1020.49 1020.49 1020.49 1020.49 1020.57 1020.65 1020.73 1020.77 1020.77 1020.81 1020.85 1020.89 1020.89 1020.89 1020.93 1020.93 1020.97 1020.97 1020.97 1020.97 1020.93 1020.93 1020.89 1020.89 1020.89 1020.93 1020.93 1020.93 1020.93
1017.37 1017.37 1017.41 1017.49 1017.53 1017.65 1017.69 1017.81 1017.93 1018.05 1018.13 1018.17 1018.21 1018.29 1018.37 1018.45 1018.53 1018.65 1018.77 1018.85 1018.93 1019.09 1019.21 1019.29 1019.41 1019.49 1019.61 1019.65 1019.73 1019.81 1019.89 1020.01 1020.13 1020.21 1020.29 1020.33 1020.37 1020.37 1020.37 1020.41 1020.41 1020.37 1020.37 1020.33 1020.37 1020.37 1020.41 1020.49 1020.57 1020.65 1020.69 1020.73 1020.73 1020.77 1020.77 1020.81 1020.81 1020.81 1020.77 1020.77 1020.77 1020.77 1020.77 1020.77 1020.73 1020.77 1020.77 1020.77 1020.77
1017.49 1017.49 1017.61 1017.65 1017.69 1017.73 1017.81 1018.01 1018.09 1018.17 1018.21 1018.25 1018.37 1018.41 1018.49 1018.65 1018.69 1018.77 1018.93 1019.05 1019.17 1019.25 1019.37 1019.45 1019.53 1019.61 1019.65 1019.77 1019.85 1019.93 1020.01 1020.09 1020.17 1020.21 1020.33 1020.37 1020.41 1020.41 1020.41 1020.37 1020.33 1020.33 1020.33 1020.29 1020.21 1020.17 1020.17 1020.21 1020.21 1020.33 1020.41 1020.53 1020.57 1020.57 1020.61 1020.61 1020.61 1020.65 1020.65 1020.61 1020.65 1020.65 1020.65 1020.65 1020.57 1020.53 1020.57 1020.61 1020.61
1017.65 1017.73 1017.81 1017.85 1017.89 1017.97 1018.09 1018.17 1018.21 1018.29 1018.37 1018.45 1018.53 1018.65 1018.69 1018.77 1018.85 1018.97 1019.09 1019.21 1019.37 1019.45 1019.49 1019.57 1019.65 1019.73 1019.77 1019.85 1019.93 1020.09 1020.13 1020.17 1020.21 1020.25 1020.29 1020.37 1020.41 1020.45 1020.41 1020.37 1020.29 1020.33 1020.33 1020.21 1020.09 1020.05 1020.05 1020.01 1019.97 1020.01 1020.13 1020.33 1020.37 1020.37 1020.37 1020.37 1020.37 1020.41 1020.49 1020.49 1020.49 1020.49 1020.49 1020.49 1020.45 1020.41 1020.37 1020.37 1020.37
1017.89 1017.93 1017.97 1018.01 1018.09 1018.21 1018.33 1018.33 1018.37 1018.45 1018.53 1018.65 1018.73 1018.77 1018.85 1018.93 1019.05 1019.17 1019.33 1019.41 1019.53 1019.65 1019.69 1019.77 1019.81 1019.85 1019.93 1020.01 1020.09 1020.17 1020.21 1020.29 1020.29 1020.33 1020.37 1020.41 1020.41 1020.41 1020.37 1020.29 1020.21 1020.21 1020.13 1020.09 1020.01 1019.93 1019.93 1019.89 1019.85 1019.81 1019.81 1019.93 1020.05 1020.13 1020.17 1020.17 1020.17 1020.21 1020.25 1020.29 1020.33 1020.37 1020.37 1020.33 1020.29 1020.25 1020.21 1020.21 1020.17
1018.09 1018.09 1018.13 1018.21 1018.37 1018.41 1018.45 1018.49 1018.57 1018.65 1018.69 1018.77 1018.85 1018.93 1019.05 1019.13 1019.21 1019.37 1019.49 1019.57 1019.65 1019.77 1019.89 1019.93 1019.93 1019.97 1020.09 1020.17 1020.21 1020.29 1020.33 1020.37 1020.37 1020.37 1020.37 1020.45 1020.41 1020.37 1020.33 1020.21 1020.17 1020.09 1020.01 1019.93 1019.89 1019.85 1019.81 1019.77 1019.69 1019.65 1019.65 1019.65 1019.73 1019.81 1019.85 1019.93 1019.93 1019.93 1019.97 1020.01 1020.05 1020.09 1020.09 1020.09 1020.09 1020.05 1020.05 1020.01 1019.97
1018.21 1018.25 1018.33 1018.45 1018.49 1018.57 1018.65 1018.69 1018.73 1018.77 1018.85 1018.93 1018.97 1019.09 1019.21 1019.33 1019.49 1019.57 1019.65 1019.77 1019.85 1019.93 1019.97 1020.05 1020.09 1020.13 1020.21 1020.29 1020.33 1020.37 1020.37 1020.41 1020.41 1020.41 1020.41 1020.45 1020.37 1020.33 1020.21 1020.13 1020.09 1020.01 1019.93 1019.85 1019.81 1019.77 1019.69 1019.65 1019.61 1019.57 1019.53 1019.49 1019.49 1019.49 1019.53 1019.57 1019.65 1019.69 1019.73 1019.73 1019.77 1019.81 1019.85 1019.85 1019.85 1019.81 1019.81 1019.77 1019.77
1018.37 1018.37 1018.49 1018.57 1018.65 1018.77 1018.81 1018.85 1018.89 1018.93 1019.01 1019.05 1019.13 1019.25 1019.37 1019.53 1019.69 1019.81 1019.85 1019.93 1019.97 1019.97 1020.05 1020.09 1020.17 1020.25 1020.33 1020.37 1020.37 1020.37 1020.41 1020.41 1020.41 1020.37 1020.37 1020.37 1020.29 1020.21 1020.13 1020.05 1019.97 1019.93 1019.81 1019.81 1019.73 1019.69 1019.65 1019.57 1019.49 1019.49 1019.41 1019.37 1019.33 1019.33 1019.29 1019.29 1019.37 1019.41 1019.41 1019.45 1019.49 1019.49 1019.53 1019.57 1019.61 1019.61 1019.61 1019.57 1019.57
1018.49 1018.57 1018.65 1018.73 1018.85 1018.93 1019.01 1019.01 1019.05 1019.09 1019.13 1019.21 1019.37 1019.49 1019.61 1019.77 1019.85 1019.93 1019.97 1019.97 1020.01 1020.09 1020.13 1020.21 1020.25 1020.33 1020.37 1020.41 1020.45 1020.45 1020.45 1020.45 1020.41 1020.37 1020.33 1020.25 1020.21 1020.13 1020.09 1019.97 1019.89 1019.85 1019.81 1019.77 1019.69 1019.65 1019.57 1019.49 1019.41 1019.37 1019.29 1019.21 1019.17 1019.17 1019.13 1019.13 1019.13 1019.13 1019.17 1019.21 1019.21 1019.21 1019.25 1019.29 1019.33 1019.33 1019.37 1019.37 1019.37
1018.69 1018.77 1018.85 1018.93 1019.09 1019.13 1019.17 1019.21 1019.21 1019.25 1019.37 1019.45 1019.57 1019.69 1019.81 1019.93 1019.97 1020.05 1020.09 1020.09 1020.09 1020.13 1020.21 1020.29 1020.37 1020.41 1020.45 1020.49 1020.49 1020.45 1020.45 1020.41 1020.37 1020.25 1020.21 1020.17 1020.13 1020.09 1020.01 1019.93 1019.81 1019.77 1019.69 1019.65 1019.61 1019.53 1019.45 1019.37 1019.29 1019.21 1019.13 1019.09 1019.05 1019.05 1019.01 1018.97 1018.97 1018.93 1018.93 1018.93 1018.93 1018.97 1019.01 1019.05 1019.05 1019.01 1018.97 1019.01 1019.05
1018.89 1018.93 1019.05 1019.13 1019.21 1019.29 1019.33 1019.37 1019.37 1019.45 1019.53 1019.69 1019.81 1019.89 1019.93 1020.01 1020.09 1020.13 1020.13 1020.13 1020.17 1020.21 1020.29 1020.33 1020.37 1020.37 1020.37 1020.45 1020.45 1020.41 1020.37 1020.29 1020.29 1020.21 1020.17 1020.13 1020.09 1020.09 1020.05 1019.93 1019.81 1019.65 1019.61 1019.53 1019.49 1019.41 1019.37 1019.25 1019.21 1019.09 1019.01 1018.93 1018.89 1018.89 1018.89 1018.85 1018.81 1018.77 1018.77 1018.77 1018.73 1018.73 1018.77 1018.77 1018.77 1018.77 1018.73 1018.69 1018.69
1019.09 1019.13 1019.21 1019.33 1019.37 1019.45 1019.49 1019.53 1019.61 1019.65 1019.77 1019.89 1020.01 1020.09 1020.09 1020.13 1020.17 1020.21 1020.21 1020.17 1020.21 1020.29 1020.37 1020.37 1020.41 1020.41 1020.41 1020.41 1020.41 1020.37 1020.37 1020.29 1020.21 1020.17 1020.13 1020.13 1020.13 1020.09 1020.05 1019.93 1019.77 1019.65 1019.57 1019.53 1019.45 1019.37 1019.25 1019.17 1019.09 1019.01 1018.93 1018.81 1018.77 1018.77 1018.77 1018.73 1018.69 1018.65 1018.65 1018.65 1018.57 1018.53 1018.53 1018.53 1018.53 1018.53 1018.49 1018.49 1018.49
1019.21 1019.29 1019.37 1019.49 1019.53 1019.61 1019.65 1019.69 1019.77 1019.85 1019.97 1020.09 1020.13 1020.17 1020.21 1020.21 1020.21 1020.21 1020.21 1020.21 1020.25 1020.33 1020.37 1020.41 1020.45 1020.49 1020.45 1020.37 1020.37 1020.33 1020.25 1020.21 1020.21 1020.17 1020.13 1020.09 1020.09 1020.09 1020.01 1019.85 1019.73 1019.65 1019.53 1019.49 1019.41 1019.33 1019.21 1019.13 1019.01 1018.93 1018.81 1018.77 1018.73 1018.65 1018.65 1018.61 1018.53 1018.49 1018.49 1018.49 1018.45 1018.41 1018.37 1018.37 1018.33 1018.33 1018.33 1018.33 1018.33
1019.33 1019.37 1019.49 1019.61 1019.65 1019.73 1019.81 1019.85 1019.93 1020.01 1020.13 1020.21 1020.21 1020.25 1020.25 1020.25 1020.29 1020.29 1020.29 1020.25 1020.37 1020.41 1020.45 1020.45 1020.45 1020.45 1020.45 1020.37 1020.33 1020.25 1020.21 1020.21 1020.21 1020.17 1020.09 1020.05 1020.05 1020.01 1019.93 1019.81 1019.73 1019.65 1019.53 1019.45 1019.37 1019.25 1019.17 1019.09 1018.93 1018.85 1018.77 1018.69 1018.65 1018.57 1018.53 1018.49 1018.41 1018.37 1018.37 1018.37 1018.29 1018.21 1018.21 1018.21 1018.13 1018.13 1018.17 1018.17 1018.17
1019.41 1019.45 1019.53 1019.65 1019.77 1019.81 1019.89 1019.93 1020.01 1020.13 1020.25 1020.33 1020.37 1020.37 1020.37 1020.37 1020.37 1020.37 1020.33 1020.29 1020.37 1020.49 1020.53 1020.53 1020.53 1020.49 1020.37 1020.33 1020.33 1020.25 1020.21 1020.17 1020.17 1020.13 1020.09 1020.01 1019.97 1019.97 1019.93 1019.85 1019.73 1019.65 1019.53 1019.41 1019.33 1019.21 1019.09 1018.97 1018.85 1018.77 1018.65 1018.65 1018.53 1018.45 1018.41 1018.37 1018.29 1018.21 1018.17 1018.13 1018.09 1018.05 1018.01 1018.01 1017.93 1017.97 1018.01 1017.97 1017.89
1019.49 1019.49 1019.61 1019.73 1019.85 1019.93 1020.05 1020.09 1020.21 1020.29 1020.37 1020.41 1020.45 1020.45 1020.45 1020.41 1020.37 1020.37 1020.33 1020.33 1020.37 1020.49 1020.53 1020.57 1020.53 1020.45 1020.33 1020.29 1020.29 1020.21 1020.17 1020.13 1020.13 1020.09 1020.09 1020.09 1020.01 1019.93 1019.89 1019.85 1019.69 1019.57 1019.49 1019.37 1019.25 1019.13 1019.01 1018.89 1018.77 1018.65 1018.57 1018.53 1018.45 1018.37 1018.29 1018.21 1018.13 1018.09 1018.01 1017.97 1017.89 1017.81 1017.81 1017.81 1017.81 1017.81 1017.81 1017.77 1017.65
1019.61 1019.65 1019.73 1019.85 1019.97 1020.09 1020.21 1020.29 1020.37 1020.45 1020.45 1020.45 1020.49 1020.49 1020.49 1020.45 1020.37 1020.37 1020.37 1020.45 1020.45 1020.49 1020.49 1020.49 1020.45 1020.37 1020.29 1020.25 1020.29 1020.25 1020.21 1020.17 1020.13 1020.13 1020.13 1020.09 1019.97 1019.89 1019.81 1019.81 1019.69 1019.57 1019.45 1019.33 1019.21 1019.09 1018.97 1018.81 1018.73 1018.57 1018.49 1018.45 1018.37 1018.25 1018.17 1018.09 1018.05 1017.93 1017.89 1017.81 1017.77 1017.65 1017.61 1017.53 1017.57 1017.57 1017.57 1017.53 1017.41
1019.73 1019.81 1019.89 1020.01 1020.09 1020.21 1020.33 1020.41 1020.49 1020.49 1020.49 1020.49 1020.49 1020.49 1020.49 1020.45 1020.49 1020.49 1020.49 1020.49 1020.49 1020.49 1020.49 1020.45 1020.41 1020.37 1020.37 1020.33 1020.33 1020.37 1020.33 1020.25 1020.21 1020.17 1020.09 1020.05 1019.97 1019.89 1019.81 1019.81 1019.69 1019.61 1019.45 1019.33 1019.21 1019.09 1018.93 1018.77 1018.65 1018.49 1018.37 1018.29 1018.21 1018.13 1018.09 1018.01 1017.93 1017.81 1017.73 1017.65 1017.61 1017.49 1017.45 1017.37 1017.29 1017.33 1017.37 1017.33 1017.29
Wind_Speed
8 7 7 6 6 6 5 5 5 5 6 6 7 7 7 7 7 7 6 6 6 6 6 7 7 7 7 8 9 10 9 8 8 8 8 8 8 8 8 8 8 8 7 7 7 6 6 6 6 5 4 4 4 4 3 3 3 4 4 4 4 4 4 5 5 5 5 5 4
8 8 7 6 6 5 5 5 5 5 5 6 6 6 7 7 7 7 7 7 7 6 6 6 6 7 7 9 9 9 9 9 8 8 8 9 8 9 9 8 8 8 8 8 7 6 6 6 6 5 4 3 4 4 3 3 4 4 5 5 4 4 4 5 5 5 5 5 4
8 7 7 6 6 6 5 5 5 6 6 6 5 5 6 6 6 6 7 7 7 6 6 5 6 7 8 9 9 9 9 9 9 9 8 8 8 8 9 8 8 8 8 7 7 6 6 6 6 5 5 4 4 4 4 3 3 4 5 5 4 3 3 4 5 4 4 3 3
8 7 7 7 8 8 7 6 6 7 7 6 5 5 5 6 6 6 6 6 6 6 6 6 6 7 8 9 9 9 9 9 9 9 9 8 8 8 8 8 8 8 8 7 7 7 6 6 5 5 5 5 5 5 5 4 3 4 4 4 3 3 4 4 4 3 3 3 3
7 7 7 7 9 9 8 7 7 7 7 6 5 5 6 5 5 5 5 6 6 7 7 7 7 7 8 9 10 10 9 9 10 9 8 8 8 8 8 8 8 8 7 7 7 7 7 6 5 4 4 5 5 5 4 4 4 4 3 3 3 3 4 4 3 3 3 3 2
7 7 7 7 8 8 7 7 8 8 7 6 7 7 7 6 5 6 6 7 8 8 8 9 8 8 8 9 9 10 9 9 9 9 8 8 7 7 7 8 8 8 7 7 7 7 7 6 4 4 4 4 4 4 4 4 4 4 3 3 3 3 3 4 3 3 3 3 3
7 7 7 7 8 8 7 7 8 8 7 7 9 9 9 8 8 8 9 8 7 7 8 8 8 8 9 9 9 10 9 9 8 8 8 8 7 7 7 8 7 7 7 7 7 7 6 6 4 4 4 4 4 4 3 3 4 4 4 4 3 3 3 4 3 3 3 4 4
6 6 7 8 8 8 8 8 8 8 8 7 9 11 11 10 10 10 9 8 7 7 8 8 8 9 10 10 10 10 10 10 9 8 8 8 8 8 8 7 7 7 7 7 7 7 6 5 4 4 4 4 4 4 4 4 4 5 5 5 3 3 2 3 3 3 4 5 5
4 5 6 7 8 8 9 9 9 9 9 9 9 10 11 10 10 10 9 8 8 8 8 8 9 10 10 11 11 11 10 10 9 9 8 8 8 8 8 7 7 7 7 7 7 7 7 5 4 4 4 4 4 4 4 5 5 5 6 5 4 3 2 2 3 3 4 5 6
4 5 6 6 7 8 8 8 9 9 9 9 9 9 9 10 10 10 9 7 7 7 8 8 9 9 10 11 10 10 10 9 9 9 9 9 9 9 9 8 8 8 7 7 7 7 6 5 5 4 4 4 4 5 5 5 6 6 6 4 4 3 3 2 3 3 4 5 6
4 5 5 6 7 7 7 7 7 8 8 8 8 8 8 9 9 8 7 6 6 7 8 8 9 9 10 9 9 9 9 8 8 9 9 9 9 9 9 9 9 8 8 7 6 6 6 5 5 5 5 4 5 5 5 5 6 6 6 5 4 4 4 4 4 4 4 5 6
4 4 5 5 6 7 7 7 6 6 7 7 7 7 7 7 7 7 6 6 7 8 8 7 8 9 9 8 8 8 8 8 8 8 9 9 9 9 9 9 8 8 8 7 6 6 5 6 6 6 6 5 5 5 5 6 6 6 6 6 5 5 6 6 5 4 4 4 5
4 4 4 5 5 6 7 7 6 6 6 6 6 6 6 6 6 6 7 7 8 7 6 6 7 7 8 7 7 7 7 8 8 8 8 8 8 8 8 8 8 8 8 7 7 6 6 7 7 7 7 7 6 5 6 6 7 7 7 7 6 7 7 8 7 5 4 4 5
3 4 4 4 5 6 6 6 5 5 5 6 6 6 6 5 5 6 6 7 7 6 5 5 5 6 6 7 7 7 7 7 8 8 8 8 8 8 8 7 8 7 7 6 6 7 7 7 8 8 8 8 7 7 6 6 7 8 8 8 8 9 9 9 8 6 5 6 7
3 4 4 4 5 5 5 5 5 4 5 5 5 5 5 5 5 5 5 5 5 5 5 5 5 5 5 6 7 7 7 7 7 8 8 8 7 8 8 7 7 7 7 6 6 7 8 8 8 8 8 8 8 8 7 7 8 8 8 9 9 9 9 9 8 7 7 8 8
3 3 4 4 5 5 5 4 4 4 4 4 4 4 4 4 4 4 5 5 5 4 4 5 5 5 4 5 6 7 7 7 7 8 8 8 7 8 8 8 8 8 7 7 7 7 7 8 8 8 8 9 9 8 8 8 8 8 9 9 9 9 9 9 8 8 8 8 8
3 3 4 4 5 5 4 4 3 3 3 4 4 4 4 4 4 4 5 5 5 5 5 6 5 5 5 5 5 6 6 7 7 7 7 8 8 8 8 8 8 8 8 8 8 7 7 7 7 8 8 9 9 9 9 9 9 9 9 9 9 9 9 9 9 8 8 9 9
3 3 4 4 5 5 5 4 3 3 3 3 3 3 3 3 4 4 4 5 6 6 6 6 5 5 5 6 5 5 6 6 7 7 7 7 7 8 8 8 7 7 7 7 8 8 8 8 8 7 8 8 8 9 9 9 9 9 9 9 9 9 9 9 9 8 8 9 10
3 3 3 4 5 5 5 4 4 3 3 3 3 3 3 4 5 5 5 5 6 7 7 7 6 5 6 6 6 5 5 6 6 6 6 6 6 7 7 7 7 7 7 7 8 8 8 8 8 8 8 8 8 8 8 8 8 9 9 9 9 9 9 9 9 8 8 9 9
3 3 4 4 5 5 5 4 4 3 3 2 3 3 4 4 5 6 6 6 6 7 7 7 6 6 5 6 6 5 5 4 6 6 6 5 6 6 6 6 6 6 6 7 7 8 8 8 8 8 8 8 9 9 9 8 8 8 8 8 8 9 9 9 9 9 9 9 9
2 3 3 4 4 5 5 4 3 3 3 3 3 4 4 4 5 6 6 6 6 6 7 7 7 6 6 6 6 5 4 3 4 5 5 5 5 6 6 6 6 6 6 6 7 7 8 8 8 8 8 8 9 9 9 8 8 9 9 8 8 9 9 9 9 9 9 9 9
2 2 3 4 4 5 4 4 3 3 3 3 3 3 4 4 4 5 5 5 5 5 5 5 6 6 7 6 6 5 4 3 3 4 4 4 4 4 4 5 5 5 6 6 7 7 8 8 8 8 8 8 9 9 9 8 8 9 9 9 9 9 9 9 8 8 8 8 8
2 2 3 3 4 4 4 3 3 3 3 3 3 3 3 4 4 4 4 4 5 5 4 4 5 5 6 6 6 5 4 3 3 2 2 3 3 3 3 4 5 6 6 6 6 7 7 7 7 7 7 7 8 9 9 8 8 8 9 9 9 9 9 8 8 8 7 7 7
1 2 2 3 3 4 3 3 3 3 3 3 3 3 4 4 4 4 4 5 5 5 4 4 3 4 4 5 5 5 5 4 3 2 2 2 2 2 3 3 4 5 6 6 6 6 7 6 6 6 6 7 7 8 8 8 8 8 8 9 9 9 8 8 7 7 7 7 7
2 2 3 3 3 3 3 3 3 3 3 3 3 4 4 4 5 5 5 5 5 5 5 4 4 3 3 4 4 4 4 4 4 3 3 2 2 2 3 3 4 5 5 5 8 9 10 9 7 6 6 6 7 7 7 7 8 8 8 9 9 9 9 9 8 8 7 7 7
3 3 3 3 3 3 3 3 3 3 3 3 4 4 4 4 4 5 5 5 5 4 4 4 3 3 3 3 3 3 2 3 3 3 3 3 3 3 3 4 4 4 4 6 9 11 13 13 12 10 7 6 6 6 7 7 8 8 8 9 9 9 9 9 9 9 8 8 8
3 3 3 3 4 4 3 3 3 3 4 4 4 4 4 4 4 5 5 5 4 4 3 3 3 3 3 3 3 2 2 2 2 2 3 3 4 4 4 5 5 4 5 7 10 13 14 15 16 14 11 7 6 7 7 8 8 8 8 8 8 9 9 10 10 10 9 9 8
3 3 3 4 4 4 3 3 4 4 4 4 4 4 4 5 5 5 5 4 4 3 3 2 2 2 2 2 2 2 2 1 1 2 2 3 3 4 5 5 5 5 7 9 12 13 15 16 17 17 15 10 7 7 7 8 8 7 7 7 8 8 9 9 9 9 9 9 9
3 3 4 4 4 3 3 4 5 5 5 4 4 5 5 5 5 5 4 4 3 3 2 1 1 2 2 2 1 1 1 1 1 2 2 2 3 4 5 5 5 6 8 11 13 14 15 16 17 18 17 15 9 7 6 6 7 7 7 7 7 8 8 9 9 9 9 9 9
3 4 4 5 5 4 4 4 4 5 5 5 5 6 6 5 5 4 3 3 2 2 1 1 2 2 1 1 1 1 1 1 1 1 2 3 4 5 5 6 6 6 8 11 13 14 15 16 17 18 18 18 13 9 6 6 6 6 7 7 7 8 8 9 9 9 9 9 9
4 5 5 5 5 5 4 4 4 5 5 6 6 6 5 4 4 3 2 2 1 1 1 2 2 2 1 1 1 1 1 2 1 2 3 4 5 6 6 6 7 7 9 11 13 15 16 17 18 18 19 19 15 11 7 7 7 7 7 7 8 8 8 8 8 9 9 9 9
5 5 5 6 5 4 4 4 4 5 6 6 6 5 4 3 2 2 1 1 2 2 2 2 2 1 0 0 1 1 1 2 2 3 3 4 5 6 6 7 7 7 9 11 13 15 16 17 18 19 19 19 16 12 9 8 7 7 7 8 8 9 9 8 8 9 10 10 9
5 5 5 5 5 4 4 4 5 5 6 6 5 4 3 2 2 2 2 1 2 2 2 2 2 2 2 2 2 2 2 3 3 4 4 5 5 6 6 7 6 7 9 12 13 15 16 17 18 18 19 19 15 12 9 8 7 7 7 8 8 8 9 9 9 9 10 10 10
5 5 5 5 5 4 4 4 4 5 5 4 4 3 3 2 2 1 1 1 1 1 1 2 2 2 2 2 2 2 3 3 4 4 4 5 5 5 6 6 5 7 9 12 14 15 16 17 18 18 19 19 14 11 8 8 7 7 8 8 8 8 8 9 9 9 9 10 9
4 5 5 5 4 5 5 5 5 5 5 4 3 2 2 2 1 1 1 1 1 1 1 1 1 1 1 1 2 2 3 3 4 4 4 3 3 4 5 6 6 7 10 13 14 16 17 18 18 19 19 17 12 9 8 8 8 8 9 9 9 9 9 8 8 8 9 9 9
4 5 5 5 5 5 5 5 5 5 4 3 2 2 1 1 0 0 0 1 1 2 1 1 1 0 0 1 2 2 3 3 4 4 4 3 3 4 5 6 6 8 11 13 15 16 17 18 19 20 19 15 10 8 8 8 8 8 9 9 9 9 9 8 8 8 7 7 8
4 5 5 5 5 5 5 5 5 4 4 3 2 1 1 0 0 0 0 1 2 1 1 1 1 1 1 2 2 3 3 3 3 4 5 5 5 6 6 7 7 8 10 13 15 16 17 18 19 19 17 12 9 8 7 7 7 7 8 9 8 8 8 7 7 7 7 7 7
3 5 6 6 5 5 4 4 4 4 3 2 1 0 0 0 0 0 0 1 1 1 0 1 1 2 2 2 3 3 3 3 4 5 6 6 6 6 6 7 7 8 9 12 14 15 17 18 19 19 17 12 9 8 8 7 7 7 8 8 8 7 7 6 6 6 6 7 9
3 4 5 5 5 4 4 4 3 3 2 1 1 1 1 0 1 1 1 1 1 1 1 1 2 2 3 3 3 3 4 4 4 4 5 6 6 7 6 6 7 7 9 11 13 15 17 18 19 19 18 14 10 8 7 7 7 8 8 8 8 7 7 6 6 5 6 7 11
4 5 5 5 5 5 4 4 3 2 1 1 1 0 0 1 1 1 1 0 1 1 1 1 2 3 3 3 3 4 4 5 4 4 4 5 6 7 7 6 7 8 9 11 13 15 17 18 19 20 19 14 10 8 7 7 7 8 8 8 8 8 7 6 6 5 6 6 9
5 6 6 6 5 5 5 4 2 1 1 1 1 1 1 1 1 1 1 1 0 0 1 1 2 3 3 3 3 4 4 5 5 4 4 5 6 7 7 6 7 8 8 10 13 15 17 19 20 21 19 14 10 8 7 6 7 8 8 8 8 7 7 7 6 6 6 6 6
Wind_Direction
186 188 187 184 184 186 187 188 183 180 180 182 183 181 180 181 183 184 185 185 188 190 191 193 194 195 193 190 191 192 191 189 187 186 184 182 181 179 177 178 178 177 175 174 171 171 170 168 165 165 168 170 173 178 180 176 169 169 172 176 180 178 177 182 192 196 197 200 200
187 188 187 183 182 182 183 184 182 181 182 185 183 180 179 181 182 183 185 187 190 190 190 192 193 192 191 190 192 192 191 189 188 187 186 185 183 179 177 178 179 178 176 173 172 172 172 170 167 169 172 174 174 181 188 187 170 169 175 184 185 181 181 190 199 199 197 198 196
187 187 185 183 180 180 181 184 184 183 183 185 182 179 179 182 183 184 185 188 188 187 187 190 191 190 189 190 192 193 192 191 189 189 189 188 185 181 178 178 178 179 178 175 175 174 174 172 171 173 176 179 180 186 192 193 177 175 180 191 188 186 189 201 204 201 197 197 193
186 186 186 185 182 182 184 185 184 183 182 182 179 177 179 184 184 183 183 183 183 185 187 188 188 189 189 190 192 194 195 193 191 191 191 190 186 182 180 177 177 179 180 178 177 175 173 172 174 177 180 181 184 190 194 191 184 185 189 193 188 190 196 207 205 200 195 196 191
189 189 189 188 185 185 185 183 181 181 181 178 176 178 182 185 182 179 177 180 185 188 189 187 187 188 189 189 191 193 195 194 193 193 193 191 187 184 181 177 177 179 180 179 178 176 173 172 176 181 184 184 188 193 194 186 185 190 198 201 196 197 200 206 204 198 191 192 189
193 194 193 190 186 185 184 181 179 178 178 175 177 180 183 184 180 179 181 185 188 189 187 186 186 186 186 187 190 192 194 194 194 194 193 191 188 184 181 180 179 178 178 179 179 176 173 173 178 185 188 188 195 198 194 180 185 192 202 213 212 207 202 204 200 193 187 192 201
193 194 194 190 185 183 181 179 177 176 175 176 180 183 184 183 182 182 184 186 186 186 186 187 187 186 184 185 189 192 193 194 194 193 191 190 187 185 183 183 179 177 176 178 178 178 177 176 180 188 193 194 198 200 197 183 187 194 203 214 217 210 203 204 198 190 189 199 208
193 193 191 187 183 180 178 176 175 175 177 181 185 186 185 181 182 183 184 184 185 186 187 189 188 186 184 185 188 191 192 192 192 192 190 188 185 184 184 182 179 178 178 176 178 179 181 181 184 189 193 195 200 201 198 188 190 196 205 213 218 214 205 204 197 191 193 201 211
192 191 186 180 178 176 175 174 174 176 179 185 187 186 184 181 181 182 183 187 188 187 187 189 188 186 185 186 188 189 190 190 190 190 189 186 184 184 184 181 181 181 180 177 178 179 181 183 189 193 194 195 200 202 200 191 194 202 209 214 218 221 219 212 198 194 196 200 212
182 180 175 173 174 172 171 172 174 176 178 183 185 185 183 182 183 184 186 188 185 186 188 190 187 186 186 187 188 189 189 189 189 188 188 187 186 185 184 183 183 182 182 180 179 178 179 183 192 197 200 199 201 202 202 196 200 207 214 219 220 224 227 226 206 200 201 205 215
169 169 168 169 170 168 167 168 172 175 177 181 182 183 183 184 185 187 186 182 181 186 191 189 185 185 187 188 188 188 188 188 188 187 186 188 187 186 185 184 183 182 182 181 179 178 180 187 194 199 203 206 203 203 203 202 205 211 218 224 223 225 228 231 218 210 207 210 217
158 162 164 164 163 162 163 167 171 174 176 179 181 182 184 186 186 185 181 177 183 189 191 185 182 183 185 187 187 187 186 185 185 184 184 187 186 185 184 182 181 181 181 180 178 179 184 192 196 200 204 210 208 206 204 204 208 214 220 226 224 226 229 233 226 220 213 212 220
148 151 155 157 156 158 161 165 169 172 176 179 181 183 185 188 184 180 178 179 186 188 186 179 179 182 183 185 184 183 183 182 182 182 183 184 183 182 180 179 179 179 180 180 180 183 188 195 197 201 205 211 213 212 208 205 208 213 219 224 225 228 231 234 230 225 220 220 226
140 144 149 151 154 157 160 164 167 171 176 181 183 184 184 186 182 179 178 181 184 181 175 172 177 181 182 180 179 179 178 178 178 178 179 179 178 177 177 178 178 178 179 181 183 186 191 197 200 203 206 211 216 216 212 208 210 213 217 221 224 228 231 234 231 227 225 227 233
140 144 147 148 153 157 160 163 167 171 176 183 186 185 182 183 181 179 176 177 175 169 163 166 175 179 178 173 173 173 172 172 173 174 174 174 174 174 176 177 178 178 180 182 185 190 194 198 201 204 207 212 216 218 216 214 214 216 218 220 223 226 230 233 231 228 226 229 235
148 148 147 148 154 158 162 165 167 171 178 186 188 185 182 181 177 172 169 169 164 160 159 166 170 170 168 167 167 166 167 168 169 170 171 171 172 174 176 177 179 181 181 183 188 195 199 201 202 204 208 213 217 218 218 217 218 219 221 222 223 226 229 232 230 228 228 229 234
157 156 154 153 157 162 166 169 169 173 180 187 187 185 180 175 169 166 165 164 160 159 162 168 166 163 162 164 164 163 164 167 169 171 172 172 173 175 178 180 182 182 182 183 190 198 204 208 207 207 209 213 217 219 219 219 220 221 223 224 225 227 229 231 231 230 230 231 235
169 165 161 160 163 167 171 173 174 176 181 184 183 180 176 167 163 163 164 163 161 162 165 168 165 162 161 163 163 165 166 168 171 174 174 173 173 175 178 182 183 183 183 185 192 199 206 210 211 211 213 216 219 221 221 220 221 223 224 226 227 228 230 232 232 231 232 233 237
176 172 168 168 170 173 176 178 178 180 180 178 174 170 166 163 160 160 162 165 165 165 165 165 163 161 160 160 161 164 166 167 169 171 171 170 171 173 177 181 183 183 185 188 196 203 207 211 212 213 215 219 222 223 224 223 224 226 227 228 229 231 233 234 234 234 235 235 239
176 174 175 175 174 176 180 183 182 180 174 164 159 160 163 164 161 161 164 169 168 165 162 161 159 158 157 155 156 159 162 161 161 163 165 165 169 174 178 181 183 185 188 193 201 207 211 213 214 215 216 219 222 225 226 226 228 229 230 231 233 234 235 237 237 237 238 239 242
178 177 178 177 176 178 182 184 180 171 160 152 154 158 162 164 163 163 164 164 161 157 156 156 155 154 152 150 151 152 153 149 152 156 161 164 171 177 180 179 182 187 193 198 206 211 215 217 217 217 218 219 222 224 226 227 229 232 234 236 237 238 239 240 241 241 242 243 244
184 177 174 174 176 178 179 178 167 156 149 148 152 155 155 156 155 154 151 147 146 147 149 151 151 150 150 149 148 146 143 138 145 151 157 164 172 177 177 176 182 190 199 205 211 215 219 221 221 220 219 220 224 226 227 227 229 233 236 239 241 243 245 245 245 246 246 247 246
180 170 167 169 171 172 170 161 149 141 137 139 140 140 138 137 132 129 128 131 137 140 142 143 144 145 146 145 143 141 139 138 143 148 155 162 169 173 176 177 187 197 205 211 212 215 219 224 226 224 222 222 225 227 228 227 229 232 237 241 245 248 250 251 250 250 251 252 251
150 144 145 148 153 153 150 140 133 130 129 130 129 126 123 118 114 113 116 120 125 128 130 130 131 133 134 135 136 139 142 147 154 160 167 169 173 179 186 191 199 207 212 216 214 213 214 220 225 226 226 224 227 228 229 228 229 232 237 242 246 251 254 255 254 253 253 254 254
90 101 108 115 124 126 124 120 121 122 121 120 117 114 111 109 109 110 112 113 115 116 118 119 120 122 124 126 131 137 144 153 161 169 179 195 202 204 205 209 215 220 224 226 227 225 225 225 223 222 223 225 228 231 233 232 233 235 238 242 247 252 257 260 259 256 253 252 253
66 74 78 85 93 96 97 99 105 107 106 102 101 102 102 104 105 106 107 107 107 108 111 115 119 124 127 126 129 135 144 154 161 170 180 198 214 222 226 226 228 231 234 237 237 238 238 238 235 230 224 220 227 233 238 241 238 238 241 244 248 252 257 261 262 261 257 254 251
58 59 59 62 70 73 75 77 86 91 93 95 97 98 98 97 98 100 102 103 102 101 102 106 114 123 128 124 132 142 154 164 169 178 188 198 212 223 230 234 235 236 238 240 243 245 246 247 247 244 238 223 223 229 237 243 243 242 243 245 248 250 252 256 260 261 262 260 255
58 57 56 60 63 63 64 70 82 89 93 95 97 96 95 93 95 97 99 100 98 94 91 88 91 97 103 111 132 150 163 174 184 192 199 206 217 225 231 236 239 240 241 243 245 248 250 252 254 254 252 244 232 228 233 241 244 245 244 244 246 246 247 250 254 257 259 260 258
64 65 65 68 68 66 67 76 86 92 96 96 95 94 93 93 95 97 98 98 97 97 96 85 73 70 78 106 128 148 167 188 195 198 204 216 230 235 237 239 243 246 247 248 250 253 255 257 259 261 262 260 254 243 234 237 241 243 244 243 242 242 242 244 247 250 252 254 255
71 75 77 78 76 74 75 82 90 93 94 93 93 93 93 94 95 96 99 101 104 108 107 92 86 87 97 126 133 162 204 225 214 206 210 222 234 240 243 245 246 249 252 254 256 259 261 264 265 267 268 268 267 262 252 242 241 241 242 243 241 239 239 240 243 245 248 250 252
73 79 82 81 78 77 77 83 87 90 91 91 92 94 95 96 98 99 101 105 104 94 80 75 87 98 114 119 142 191 218 235 232 225 224 229 239 245 249 252 253 255 258 261 264 266 269 270 272 273 273 273 272 270 265 257 251 247 245 245 242 239 238 239 240 241 243 246 249
69 75 79 80 77 76 76 78 83 85 88 89 90 92 93 95 93 86 79 84 90 86 81 78 97 116 155 278 248 237 238 243 240 237 235 235 242 249 254 259 260 262 265 268 270 272 274 275 276 276 277 277 276 274 270 267 263 259 255 252 248 243 240 239 240 240 239 240 241
64 69 73 76 75 72 72 75 80 83 84 84 85 87 88 85 72 57 53 62 87 103 115 132 155 179 200 219 233 243 245 243 242 242 242 242 245 252 259 264 266 268 271 274 276 277 278 279 279 279 280 280 279 277 273 271 270 268 265 262 256 249 244 241 242 241 240 238 238
63 66 69 71 72 73 73 75 79 81 82 80 77 77 80 84 82 78 76 84 104 118 133 151 168 182 193 197 205 223 237 245 244 246 247 248 253 259 264 269 272 276 279 281 283 284 284 285 285 285 284 284 283 280 277 275 274 273 272 269 265 259 252 245 243 241 241 240 241
68 72 72 70 73 76 79 81 82 83 83 83 78 73 73 87 109 127 143 140 102 84 79 89 125 163 194 210 209 221 234 248 252 253 253 255 263 270 273 274 276 281 284 286 287 288 289 289 289 290 290 289 287 284 281 279 277 275 273 271 270 266 261 254 249 245 242 241 242
76 82 84 80 79 82 85 87 86 87 88 92 93 90 81 75 106 151 132 98 77 64 49 29 31 5 265 252 241 237 238 248 260 267 270 270 274 277 278 278 280 283 286 288 289 290 291 292 292 292 293 292 289 286 283 281 279 277 275 273 272 269 265 260 255 250 245 242 241
86 93 95 91 89 90 91 94 94 96 98 104 107 107 101 62 340 335 34 84 79 65 25 345 328 284 259 252 256 254 253 255 269 279 283 282 280 280 280 281 283 285 287 289 290 291 292 293 294 294 295 293 290 286 285 282 281 279 278 276 273 269 265 262 258 253 249 244 242
96 102 102 100 98 97 96 96 98 102 106 106 89 58 22 13 318 304 321 114 121 137 216 279 265 255 250 250 262 269 272 272 275 280 284 284 282 281 281 282 283 285 287 289 291 292 294 295 296 297 297 294 291 288 286 285 284 282 281 280 278 274 269 265 260 255 250 245 246
93 99 100 100 98 94 89 86 90 96 100 95 61 21 353 328 279 263 241 156 149 161 185 228 245 249 253 263 276 283 285 283 281 280 281 282 281 281 282 283 285 286 289 292 295 296 298 299 299 300 300 296 294 291 289 288 286 285 284 283 283 280 276 269 263 258 252 247 251
78 82 85 87 87 85 82 79 80 89 105 111 105 105 265 259 261 269 274 125 150 167 191 229 253 262 271 283 288 291 292 294 292 287 283 281 283 286 288 287 289 291 294 297 300 301 302 303 303 303 302 299 296 293 290 289 287 286 285 285 284 284 281 276 268 262 256 252 253
76 78 79 82 85 87 88 88 90 97 115 120 136 170 222 250 277 303 330 350 324 265 254 266 280 289 298 305 303 301 300 301 299 295 291 289 290 293 294 294 295 297 298 300 303 304 305 305 305 305 305 302 298 294 290 289 288 287 286 284 283 283 283 282 276 268 260 254 252